Location: Béaulencourt
(50.0796°N, 2.8795°E)
Time: 09:08:38
(UTC+00:00)

SOZ - Pass Details

Date: 20 January 2026
Orbit: 327 x 16064 km, 51.9° (Epoch: 18 February)

Event Time Altitude Azimuth Distance (km) Brightness Sun altitude
Exits shadow 05:37:53 61° 346° (NNW) 446 4.2 -18.7°
Maximum altitude 05:38:02 63° 9° (N) 447 4.3 -18.7°
Drops below altitude 10° 05:41:51 10° 92° (E) 2,128 9.1 -18.1°
Sets 05:45:45 0° 96° (E) 4,087 11.0 -17.4°
